| time (UTC) | temp F | wind direction | speed knots | gust knots | rain 1hr in | rain 24hr in | rain mn in | humidity % | barometer mb |
| 20260510075349 | 47 | 292 | 0.0 | 4.3 | 0.00 | 0.44 | 0.00 | 96 | 1008.1 |
| 20260510074838 | 47 | 330 | 0.9 | 4.3 | 0.00 | 0.44 | 0.00 | 96 | 1008.0 |
| 20260510074334 | 47 | 273 | 0.0 | 3.5 | 0.00 | 0.44 | 0.00 | 96 | 1008.1 |
| 20260510073847 | 47 | 294 | 0.0 | 3.5 | 0.00 | 0.44 | 0.00 | 96 | 1008.1 |
| 20260510073334 | 47 | 355 | 0.0 | 1.7 | 0.00 | 0.44 | 0.00 | 96 | 1008.0 |
| 20260510072839 | 47 | 355 | 0.0 | 4.3 | 0.00 | 0.44 | 0.00 | 96 | 1007.9 |
| 20260510072347 | 47 | 294 | 2.6 | 4.3 | 0.00 | 0.44 | 0.00 | 96 | 1007.9 |
| 20260510071853 | 47 | 46 | 0.9 | 3.5 | 0.00 | 0.44 | 0.00 | 96 | 1007.7 |
| 20260510071347 | 48 | 220 | 0.0 | 4.3 | 0.00 | 0.44 | 0.00 | 96 | 1007.7 |
| 20260510070907 | 48 | 350 | 0.9 | 7.0 | 0.00 | 0.44 | 0.00 | 96 | 1007.8 |
| 20260510070409 | 48 | 325 | 2.6 | 7.0 | 0.00 | 0.44 | 0.00 | 96 | 1007.6 |
| 20260510065831 | 48 | 21 | 0.0 | 4.3 | 0.00 | 0.44 | 0.00 | 96 | 1007.8 |
| 20260510065357 | 48 | 300 | 0.0 | 4.3 | 0.00 | 0.44 | 0.00 | 96 | 1007.4 |
| 20260510064859 | 48 | 118 | 0.0 | 3.5 | 0.00 | 0.44 | 0.00 | 96 | 1007.1 |
| 20260510064335 | 48 | 300 | 0.9 | 4.3 | 0.00 | 0.44 | 0.00 | 96 | 1007.3 |
| 20260510063832 | 49 | 246 | 1.7 | 4.3 | 0.00 | 0.44 | 0.00 | 96 | 1007.3 |
| 20260510063356 | 49 | 302 | 0.9 | 6.1 | 0.00 | 0.44 | 0.00 | 96 | 1007.0 |
| 20260510062835 | 49 | 308 | 0.9 | 6.1 | 0.00 | 0.44 | 0.00 | 96 | 1007.0 |
| 20260510062335 | 49 | 342 | 0.0 | 2.6 | 0.00 | 0.44 | 0.00 | 96 | 1007.0 |
| 20260510061857 | 49 | 55 | 0.0 | 3.5 | 0.00 | 0.44 | 0.00 | 96 | 1007.1 |
| 20260510061355 | 49 | 54 | 0.0 | 6.1 | 0.00 | 0.44 | 0.00 | 96 | 1007.0 |
| 20260510060837 | 50 | 217 | 0.9 | 4.3 | 0.00 | 0.44 | 0.00 | 96 | 1007.1 |
| 20260510060344 | 50 | 202 | 0.0 | 2.6 | 0.00 | 0.44 | 0.00 | 96 | 1007.2 |
| 20260510055848 | 50 | 202 | 0.9 | 2.6 | 0.00 | 0.44 | 0.00 | 96 | 1007.1 |
| 20260510055333 | 50 | 276 | 0.0 | 2.6 | 0.00 | 0.44 | 0.00 | 96 | 1007.1 |
| 20260510054855 | 49 | 276 | 0.0 | 0.9 | 0.00 | 0.44 | 0.00 | 96 | 1007.1 |
| 20260510054332 | 49 | 276 | 0.0 | 1.7 | 0.00 | 0.44 | 0.00 | 96 | 1006.9 |
| 20260510053834 | 49 | 276 | 0.9 | 1.7 | 0.00 | 0.44 | 0.00 | 96 | 1006.7 |
| 20260510053344 | 49 | 276 | 0.0 | 1.7 | 0.00 | 0.44 | 0.00 | 96 | 1006.8 |
| 20260510052848 | 49 | 205 | 0.0 | 1.7 | 0.00 | 0.44 | 0.00 | 96 | 1007.1 |
| 20260510052342 | 49 | 198 | 0.0 | 1.7 | 0.00 | 0.44 | 0.00 | 96 | 1006.8 |
| 20260510051840 | 49 | 198 | 0.9 | 1.7 | 0.00 | 0.44 | 0.00 | 96 | 1006.5 |
| 20260510051340 | 49 | 198 | 0.0 | 1.7 | 0.00 | 0.44 | 0.00 | 96 | 1006.3 |
| 20260510050846 | 49 | 199 | 0.0 | 0.9 | 0.00 | 0.44 | 0.00 | 96 | 1006.3 |
| 20260510050353 | 49 | 198 | 0.0 | 0.9 | 0.00 | 0.44 | 0.00 | 96 | 1006.4 |
| 20260510045848 | 49 | 198 | 0.0 | 1.7 | 0.00 | 0.44 | 0.00 | 96 | 1006.3 |
| 20260510045343 | 48 | 198 | 0.0 | 2.6 | 0.00 | 0.44 | 0.00 | 96 | 1006.2 |
| 20260510044841 | 49 | 187 | 0.0 | 1.7 | 0.00 | 0.44 | 0.00 | 96 | 1006.3 |
| 20260510044348 | 48 | 187 | 0.0 | 0.9 | 0.00 | 0.44 | 0.00 | 96 | 1006.3 |
| 20260510043834 | 48 | 187 | 0.0 | 0.9 | 0.00 | 0.44 | 0.00 | 96 | 1006.4 |
| 20260510043412 | 48 | 187 | 0.0 | 0.9 | 0.00 | 0.44 | 0.00 | 96 | 1006.4 |
| 20260510042845 | 48 | 187 | 0.0 | 1.7 | 0.00 | 0.44 | 0.00 | 96 | 1006.2 |
| 20260510042336 | 48 | 187 | 0.9 | 1.7 | 0.00 | 0.44 | 0.00 | 96 | 1006.1 |
| 20260510041842 | 48 | 184 | 0.0 | 2.6 | 0.00 | 0.44 | 0.00 | 96 | 1005.9 |
| 20260510041346 | 48 | 184 | 0.9 | 2.6 | 0.00 | 0.44 | 0.00 | 96 | 1005.9 |
| 20260510040848 | 48 | 184 | 0.9 | 1.7 | 0.00 | 0.44 | 0.00 | 96 | 1005.9 |
| 20260510040356 | 48 | 184 | 0.0 | 1.7 | 0.00 | 0.44 | 0.00 | 96 | 1005.8 |
| 20260510035905 | 48 | 184 | 0.0 | 1.7 | 0.00 | 0.44 | 0.44 | 96 | 1005.9 |
| 20260510035400 | 47 | 184 | 0.0 | 1.7 | 0.00 | 0.44 | 0.44 | 96 | 1005.8 |
| 20260510034845 | 47 | 184 | 0.0 | 1.7 | 0.00 | 0.44 | 0.44 | 96 | 1005.9 |
| 20260510034346 | 47 | 184 | 0.0 | 1.7 | 0.00 | 0.44 | 0.44 | 96 | 1005.9 |
| 20260510033906 | 47 | 184 | 0.9 | 1.7 | 0.00 | 0.44 | 0.44 | 95 | 1005.8 |
| 20260510033347 | 47 | 184 | 0.0 | 1.7 | 0.00 | 0.44 | 0.44 | 95 | 1005.9 |
| 20260510032836 | 47 | 184 | 0.0 | 1.7 | 0.00 | 0.44 | 0.44 | 95 | 1005.8 |
| 20260510032352 | 47 | 184 | 0.0 | 1.7 | 0.00 | 0.44 | 0.44 | 95 | 1005.7 |
| 20260510031836 | 47 | 184 | 0.0 | 0.9 | 0.00 | 0.44 | 0.44 | 95 | 1005.6 |
| 20260510031344 | 47 | 184 | 0.0 | 2.6 | 0.00 | 0.44 | 0.44 | 95 | 1005.7 |
| 20260510030854 | 47 | 184 | 0.0 | 2.6 | 0.00 | 0.44 | 0.44 | 95 | 1005.7 |
| 20260510030357 | 47 | 184 | 0.0 | 3.5 | 0.00 | 0.44 | 0.44 | 95 | 1005.6 |
| 20260510025846 | 47 | 184 | 0.9 | 3.5 | 0.00 | 0.44 | 0.44 | 95 | 1005.6 |
| 20260510025342 | 47 | 201 | 0.0 | 1.7 | 0.00 | 0.44 | 0.44 | 95 | 1005.5 |
| 20260510024842 | 47 | 202 | 0.0 | 1.7 | 0.00 | 0.44 | 0.44 | 95 | 1005.5 |
| 20260510024345 | 47 | 223 | 0.9 | 1.7 | 0.00 | 0.44 | 0.44 | 95 | 1005.6 |
| 20260510023833 | 47 | 139 | 0.0 | 2.6 | 0.00 | 0.44 | 0.44 | 95 | 1005.3 |
| 20260510023332 | 47 | 139 | 0.9 | 2.6 | 0.00 | 0.44 | 0.44 | 95 | 1005.1 |
| 20260510022836 | 47 | 198 | 0.0 | 2.6 | 0.00 | 0.44 | 0.44 | 95 | 1005.0 |
| 20260510022332 | 47 | 198 | 0.0 | 3.5 | 0.00 | 0.44 | 0.44 | 95 | 1005.1 |
| 20260510021832 | 47 | 182 | 0.9 | 3.5 | 0.00 | 0.44 | 0.44 | 95 | 1005.2 |
| 20260510021332 | 47 | 184 | 0.0 | 4.3 | 0.00 | 0.44 | 0.44 | 95 | 1005.2 |
| 20260510020854 | 47 | 184 | 0.9 | 4.3 | 0.00 | 0.44 | 0.44 | 94 | 1005.1 |
| 20260510020356 | 48 | 144 | 1.7 | 6.1 | 0.00 | 0.44 | 0.44 | 94 | 1005.1 |
| 20260510015847 | 48 | 188 | 0.9 | 6.1 | 0.00 | 0.44 | 0.44 | 94 | 1005.2 |
| 20260510015343 | 48 | 231 | 0.0 | 2.6 | 0.00 | 0.44 | 0.44 | 94 | 1005.2 |
| 20260510014840 | 48 | 226 | 0.0 | 2.6 | 0.00 | 0.44 | 0.44 | 94 | 1005.3 |
| 20260510014330 | 48 | 255 | 0.9 | 2.6 | 0.00 | 0.44 | 0.44 | 94 | 1005.2 |
| 20260510013848 | 48 | 255 | 0.9 | 4.3 | 0.00 | 0.44 | 0.44 | 94 | 1005.2 |
| 20260510013332 | 49 | 175 | 0.0 | 4.3 | 0.01 | 0.44 | 0.44 | 94 | 1005.1 |
| 20260510012851 | 49 | 293 | 0.9 | 2.6 | 0.02 | 0.44 | 0.44 | 94 | 1004.9 |
| 20260510012334 | 49 | 178 | 0.9 | 3.5 | 0.03 | 0.44 | 0.44 | 94 | 1004.9 |
| 20260510011837 | 49 | 178 | 0.9 | 5.2 | 0.05 | 0.44 | 0.44 | 94 | 1004.8 |
| 20260510011340 | 49 | 124 | 0.9 | 6.1 | 0.07 | 0.44 | 0.44 | 94 | 1004.6 |
| 20260510010907 | 49 | 190 | 3.5 | 7.8 | 0.09 | 0.44 | 0.44 | 94 | 1004.4 |
| 20260510010409 | 49 | 227 | 1.7 | 7.8 | 0.10 | 0.44 | 0.44 | 94 | 1004.5 |
| 20260510005852 | 49 | 66 | 3.5 | 7.8 | 0.14 | 0.44 | 0.44 | 94 | 1004.4 |
| 20260510005333 | 49 | 223 | 2.6 | 12.2 | 0.16 | 0.44 | 0.44 | 94 | 1004.5 |
| 20260510004841 | 49 | 180 | 2.6 | 12.2 | 0.20 | 0.44 | 0.44 | 94 | 1004.4 |
| 20260510004347 | 49 | 200 | 3.5 | 6.1 | 0.23 | 0.44 | 0.44 | 94 | 1004.3 |
| 20260510003839 | 49 | 164 | 2.6 | 4.3 | 0.24 | 0.44 | 0.44 | 94 | 1004.4 |
| 20260510003334 | 49 | 171 | 1.7 | 4.3 | 0.25 | 0.43 | 0.43 | 93 | 1004.6 |
| 20260510002853 | 49 | 161 | 1.7 | 5.2 | 0.26 | 0.42 | 0.42 | 93 | 1005.1 |
| 20260510002401 | 49 | 148 | 1.7 | 8.7 | 0.28 | 0.41 | 0.41 | 93 | 1004.9 |
| 20260510001834 | 49 | 242 | 2.6 | 13.0 | 0.30 | 0.39 | 0.39 | 93 | 1005.4 |
| 20260510001334 | 49 | 158 | 2.6 | 13.0 | 0.34 | 0.36 | 0.36 | 93 | 1005.7 |
| 20260510000852 | 49 | 197 | 3.5 | 9.6 | 0.35 | 0.35 | 0.35 | 93 | 1005.7 |
| 20260510000353 | 49 | 129 | 1.7 | 8.7 | 0.34 | 0.34 | 0.34 | 92 | 1005.6 |
| 20260509235830 | 49 | 209 | 2.6 | 5.2 | 0.30 | 0.30 | 0.30 | 92 | 1005.7 |
| 20260509235351 | 49 | 154 | 1.7 | 5.2 | 0.28 | 0.28 | 0.28 | 92 | 1005.6 |
| 20260509234846 | 49 | 180 | 1.7 | 6.1 | 0.24 | 0.24 | 0.24 | 91 | 1005.5 |
| 20260509234344 | 49 | 250 | 1.7 | 6.1 | 0.21 | 0.21 | 0.21 | 90 | 1005.3 |
| 20260509233842 | 49 | 259 | 2.6 | 7.0 | 0.20 | 0.20 | 0.20 | 89 | 1005.0 |
| 20260509233358 | 50 | 11 | 2.6 | 10.4 | 0.18 | 0.18 | 0.18 | 88 | 1004.8 |
| 20260509232918 | 50 | 148 | 2.6 | 10.4 | 0.15 | 0.15 | 0.15 | 86 | 1004.4 |
| 20260509232340 | 52 | 233 | 5.2 | 10.4 | 0.12 | 0.12 | 0.12 | 83 | 1004.5 |
| 20260509231836 | 54 | 91 | 4.3 | 12.2 | 0.09 | 0.09 | 0.09 | 78 | 1004.7 |
| 20260509231340 | 58 | 84 | 3.5 | 20.9 | 0.00 | 0.00 | 0.00 | 70 | 1004.6 |
| 20260509230841 | 60 | 227 | 7.0 | 20.9 | 0.00 | 0.00 | 0.00 | 67 | 1003.7 |
| 20260509230332 | 60 | 236 | 3.5 | 9.6 | 0.00 | 0.00 | 0.00 | 67 | 1002.6 |
| 20260509225842 | 60 | 249 | 3.5 | 8.7 | 0.00 | 0.00 | 0.00 | 66 | 1002.6 |
| 20260509225345 | 60 | 254 | 2.6 | 10.4 | 0.00 | 0.00 | 0.00 | 65 | 1002.8 |
| 20260509224831 | 61 | 249 | 3.5 | 10.4 | 0.00 | 0.00 | 0.00 | 65 | 1003.0 |
| 20260509224359 | 61 | 238 | 3.5 | 7.8 | 0.00 | 0.00 | 0.00 | 65 | 1002.8 |
| 20260509223838 | 61 | 49 | 2.6 | 6.1 | 0.00 | 0.00 | 0.00 | 66 | 1002.8 |
| 20260509223339 | 61 | 252 | 2.6 | 7.8 | 0.00 | 0.00 | 0.00 | 65 | 1002.7 |
| 20260509222845 | 61 | 251 | 4.3 | 7.8 | 0.00 | 0.00 | 0.00 | 65 | 1002.4 |
| 20260509222409 | 61 | 234 | 1.7 | 7.0 | 0.00 | 0.00 | 0.00 | 65 | 1002.6 |
| 20260509221842 | 61 | 182 | 1.7 | 7.8 | 0.00 | 0.00 | 0.00 | 64 | 1002.6 |
| 20260509221402 | 61 | 206 | 1.7 | 7.8 | 0.00 | 0.00 | 0.00 | 64 | 1002.6 |
| 20260509220836 | 61 | 207 | 1.7 | 8.7 | 0.00 | 0.00 | 0.00 | 63 | 1002.5 |
| 20260509220343 | 61 | 88 | 3.5 | 9.6 | 0.00 | 0.00 | 0.00 | 62 | 1002.6 |
| 20260509215832 | 62 | 210 | 3.5 | 9.6 | 0.00 | 0.00 | 0.00 | 62 | 1002.7 |
| 20260509215344 | 62 | 244 | 3.5 | 8.7 | 0.00 | 0.00 | 0.00 | 62 | 1002.8 |
| 20260509214853 | 62 | 73 | 2.6 | 4.3 | 0.00 | 0.00 | 0.00 | 64 | 1002.7 |
| 20260509214347 | 62 | 205 | 0.9 | 9.6 | 0.00 | 0.00 | 0.00 | 64 | 1002.7 |
| 20260509213842 | 62 | 172 | 3.5 | 9.6 | 0.00 | 0.00 | 0.00 | 63 | 1002.8 |
| 20260509213347 | 62 | 234 | 4.3 | 8.7 | 0.00 | 0.00 | 0.00 | 60 | 1002.9 |
| 20260509212844 | 62 | 225 | 4.3 | 8.7 | 0.00 | 0.00 | 0.00 | 59 | 1002.9 |
| 20260509212406 | 63 | 242 | 3.5 | 8.7 | 0.00 | 0.00 | 0.00 | 61 | 1003.0 |
| 20260509211846 | 63 | 221 | 3.5 | 8.7 | 0.00 | 0.00 | 0.00 | 63 | 1002.8 |
| 20260509211340 | 63 | 283 | 2.6 | 9.6 | 0.00 | 0.00 | 0.00 | 62 | 1002.8 |
| 20260509210849 | 64 | 120 | 2.6 | 9.6 | 0.00 | 0.00 | 0.00 | 60 | 1002.8 |
| 20260509210357 | 64 | 97 | 3.5 | 9.6 | 0.00 | 0.00 | 0.00 | 62 | 1002.7 |
| 20260509205855 | 63 | 125 | 3.5 | 10.4 | 0.00 | 0.00 | 0.00 | 60 | 1002.7 |
| 20260509205336 | 63 | 219 | 4.3 | 11.3 | 0.00 | 0.00 | 0.00 | 62 | 1002.8 |
| 20260509204839 | 62 | 194 | 2.6 | 7.8 | 0.00 | 0.00 | 0.00 | 63 | 1002.8 |
| 20260509204359 | 62 | 221 | 2.6 | 6.1 | 0.00 | 0.00 | 0.00 | 60 | 1002.9 |
| 20260509203901 | 62 | 192 | 1.7 | 7.0 | 0.00 | 0.00 | 0.00 | 60 | 1003.0 |
| 20260509203332 | 63 | 258 | 0.9 | 7.8 | 0.00 | 0.00 | 0.00 | 61 | 1003.1 |
| 20260509202857 | 62 | 336 | 1.7 | 6.1 | 0.00 | 0.00 | 0.00 | 62 | 1003.1 |
| 20260509202337 | 62 | 286 | 2.6 | 8.7 | 0.00 | 0.00 | 0.00 | 62 | 1003.2 |
| 20260509201901 | 62 | 270 | 3.5 | 8.7 | 0.00 | 0.00 | 0.00 | 61 | 1003.2 |
| 20260509201343 | 62 | 156 | 2.6 | 7.8 | 0.00 | 0.00 | 0.00 | 61 | 1003.2 |
| 20260509200843 | 63 | 223 | 2.6 | 12.2 | 0.00 | 0.00 | 0.00 | 60 | 1003.3 |
| 20260509200350 | 65 | 251 | 4.3 | 12.2 | 0.00 | 0.00 | 0.00 | 59 | 1003.3 |
| 20260509195840 | 65 | 267 | 6.1 | 10.4 | 0.00 | 0.00 | 0.00 | 60 | 1003.3 |
| 20260509195340 | 64 | 231 | 4.3 | 11.3 | 0.00 | 0.00 | 0.00 | 61 | 1003.2 |
| 20260509194859 | 64 | 304 | 2.6 | 11.3 | 0.00 | 0.00 | 0.00 | 58 | 1003.2 |
| 20260509194341 | 64 | 130 | 4.3 | 12.2 | 0.00 | 0.00 | 0.00 | 60 | 1003.4 |
| 20260509193830 | 64 | 161 | 3.5 | 8.7 | 0.00 | 0.00 | 0.00 | 60 | 1003.6 |
| 20260509193411 | 63 | 198 | 1.7 | 7.8 | 0.00 | 0.00 | 0.00 | 64 | 1003.7 |
| 20260509192832 | 64 | 148 | 3.5 | 10.4 | 0.00 | 0.00 | 0.00 | 60 | 1003.7 |
| 20260509192354 | 65 | 238 | 3.5 | 7.0 | 0.00 | 0.00 | 0.00 | 61 | 1004.0 |
| 20260509191842 | 64 | 234 | 1.7 | 12.2 | 0.00 | 0.00 | 0.00 | 65 | 1004.1 |
| 20260509191351 | 63 | 317 | 5.2 | 12.2 | 0.00 | 0.00 | 0.00 | 64 | 1004.0 |
| 20260509190847 | 62 | 116 | 3.5 | 9.6 | 0.00 | 0.00 | 0.00 | 62 | 1004.1 |
| 20260509190330 | 62 | 140 | 3.5 | 9.6 | 0.00 | 0.00 | 0.00 | 62 | 1004.1 |
| 20260509185856 | 63 | 149 | 2.6 | 8.7 | 0.00 | 0.00 | 0.00 | 59 | 1004.1 |
| 20260509185354 | 63 | 262 | 3.5 | 10.4 | 0.00 | 0.00 | 0.00 | 61 | 1004.0 |
| 20260509184840 | 64 | 180 | 4.3 | 10.4 | 0.00 | 0.00 | 0.00 | 63 | 1003.9 |
| 20260509184331 | 63 | 191 | 3.5 | 9.6 | 0.00 | 0.00 | 0.00 | 59 | 1003.9 |
| 20260509183834 | 64 | 274 | 5.2 | 9.6 | 0.00 | 0.00 | 0.00 | 59 | 1004.0 |
| 20260509183351 | 63 | 205 | 5.2 | 8.7 | 0.00 | 0.00 | 0.00 | 64 | 1003.9 |
| 20260509182849 | 63 | 65 | 2.6 | 12.2 | 0.00 | 0.00 | 0.00 | 59 | 1004.0 |
| 20260509182346 | 63 | 125 | 3.5 | 12.2 | 0.00 | 0.00 | 0.00 | 62 | 1004.0 |
| 20260509181830 | 63 | 251 | 3.5 | 8.7 | 0.00 | 0.00 | 0.00 | 60 | 1004.0 |
| 20260509181332 | 62 | 79 | 1.7 | 8.7 | 0.00 | 0.00 | 0.00 | 67 | 1004.0 |
| 20260509180845 | 62 | 200 | 2.6 | 8.7 | 0.00 | 0.00 | 0.00 | 66 | 1004.1 |
| 20260509180343 | 62 | 224 | 3.5 | 7.8 | 0.00 | 0.00 | 0.00 | 65 | 1004.1 |
| 20260509175844 | 62 | 212 | 2.6 | 8.7 | 0.00 | 0.00 | 0.00 | 63 | 1004.2 |
| 20260509175340 | 63 | 221 | 4.3 | 8.7 | 0.00 | 0.00 | 0.00 | 60 | 1004.2 |
| 20260509174836 | 63 | 218 | 4.3 | 12.2 | 0.00 | 0.00 | 0.00 | 62 | 1004.1 |
| 20260509174334 | 63 | 179 | 3.5 | 8.7 | 0.00 | 0.00 | 0.00 | 68 | 1004.3 |
| 20260509173854 | 61 | 298 | 3.5 | 9.6 | 0.00 | 0.00 | 0.00 | 70 | 1004.4 |
| 20260509173346 | 60 | 231 | 3.5 | 9.6 | 0.00 | 0.00 | 0.00 | 69 | 1004.4 |
| 20260509172907 | 60 | 237 | 3.5 | 12.2 | 0.00 | 0.00 | 0.00 | 70 | 1004.6 |
| 20260509172352 | 61 | 260 | 5.2 | 12.2 | 0.00 | 0.00 | 0.00 | 67 | 1004.6 |
| 20260509171832 | 61 | 274 | 3.5 | 9.6 | 0.00 | 0.00 | 0.00 | 69 | 1004.5 |
| 20260509171332 | 61 | 235 | 2.6 | 8.7 | 0.00 | 0.00 | 0.00 | 66 | 1004.4 |
| 20260509170841 | 61 | 254 | 3.5 | 8.7 | 0.00 | 0.00 | 0.00 | 68 | 1004.6 |
| 20260509170359 | 60 | 213 | 3.5 | 9.6 | 0.00 | 0.00 | 0.00 | 72 | 1004.7 |
| 20260509165834 | 60 | 135 | 5.2 | 9.6 | 0.00 | 0.00 | 0.00 | 69 | 1004.8 |
| 20260509165344 | 61 | 213 | 3.5 | 7.8 | 0.00 | 0.00 | 0.00 | 69 | 1004.7 |
| 20260509164850 | 60 | 355 | 2.6 | 8.7 | 0.00 | 0.00 | 0.00 | 70 | 1004.7 |
| 20260509164332 | 60 | 240 | 4.3 | 9.6 | 0.00 | 0.00 | 0.00 | 70 | 1004.8 |
| 20260509163831 | 60 | 163 | 2.6 | 9.6 | 0.00 | 0.00 | 0.00 | 71 | 1004.7 |
| 20260509163346 | 60 | 216 | 2.6 | 9.6 | 0.00 | 0.00 | 0.00 | 73 | 1004.7 |
| 20260509162840 | 60 | 227 | 5.2 | 8.7 | 0.00 | 0.00 | 0.00 | 72 | 1004.8 |
| 20260509162432 | 60 | 43 | 2.6 | 10.4 | 0.00 | 0.00 | 0.00 | 70 | 1005.0 |
| 20260509161839 | 60 | 200 | 4.3 | 10.4 | 0.00 | 0.00 | 0.00 | 74 | 1004.9 |
| 20260509161350 | 60 | 246 | 3.5 | 7.8 | 0.00 | 0.00 | 0.00 | 73 | 1005.0 |
| 20260509160857 | 58 | 258 | 2.6 | 8.7 | 0.00 | 0.00 | 0.00 | 76 | 1005.1 |
| 20260509160416 | 58 | 223 | 6.1 | 8.7 | 0.00 | 0.00 | 0.00 | 74 | 1005.2 |
| 20260509155841 | 57 | 265 | 4.3 | 8.7 | 0.00 | 0.00 | 0.00 | 77 | 1005.1 |
| 20260509155345 | 57 | 244 | 4.3 | 8.7 | 0.00 | 0.00 | 0.00 | 76 | 1005.2 |
| 20260509154832 | 56 | 243 | 2.6 | 9.6 | 0.00 | 0.00 | 0.00 | 77 | 1005.3 |
| 20260509154350 | 56 | 252 | 4.3 | 9.6 | 0.00 | 0.00 | 0.00 | 76 | 1005.4 |
| 20260509153857 | 56 | 244 | 4.3 | 7.8 | 0.00 | 0.00 | 0.00 | 77 | 1005.3 |
| 20260509153406 | 57 | 268 | 3.5 | 8.7 | 0.00 | 0.00 | 0.00 | 78 | 1005.5 |
| 20260509152839 | 57 | 242 | 3.5 | 8.7 | 0.00 | 0.00 | 0.00 | 79 | 1005.4 |
| 20260509152337 | 56 | 246 | 4.3 | 8.7 | 0.00 | 0.00 | 0.00 | 79 | 1005.3 |
| 20260509151839 | 56 | 183 | 0.9 | 7.8 | 0.00 | 0.00 | 0.00 | 79 | 1005.3 |
| 20260509151334 | 56 | 190 | 1.7 | 9.6 | 0.00 | 0.00 | 0.00 | 80 | 1005.3 |
| 20260509150856 | 56 | 230 | 2.6 | 9.6 | 0.00 | 0.00 | 0.00 | 79 | 1005.2 |
| 20260509150336 | 56 | 180 | 1.7 | 6.1 | 0.00 | 0.00 | 0.00 | 81 | 1005.3 |
| 20260509145838 | 55 | 238 | 2.6 | 5.2 | 0.00 | 0.00 | 0.00 | 81 | 1005.5 |
| 20260509145414 | 55 | 223 | 1.7 | 4.3 | 0.00 | 0.00 | 0.00 | 81 | 1005.4 |
| 20260509144849 | 55 | 214 | 1.7 | 4.3 | 0.00 | 0.00 | 0.00 | 82 | 1005.5 |
| 20260509144342 | 54 | 242 | 2.6 | 7.0 | 0.00 | 0.00 | 0.00 | 82 | 1005.4 |
| 20260509143844 | 54 | 219 | 1.7 | 7.0 | 0.00 | 0.00 | 0.00 | 82 | 1005.4 |
| 20260509143406 | 54 | 20 | 1.7 | 8.7 | 0.00 | 0.00 | 0.00 | 82 | 1005.5 |
| 20260509142844 | 54 | 243 | 2.6 | 8.7 | 0.00 | 0.00 | 0.00 | 82 | 1005.5 |
| 20260509142346 | 54 | 135 | 1.7 | 7.0 | 0.00 | 0.00 | 0.00 | 83 | 1005.4 |
| 20260509141849 | 54 | 159 | 2.6 | 7.0 | 0.00 | 0.00 | 0.00 | 83 | 1005.4 |
| 20260509141352 | 54 | 216 | 1.7 | 4.3 | 0.00 | 0.00 | 0.00 | 83 | 1005.5 |
| 20260509140837 | 54 | 239 | 0.9 | 7.0 | 0.00 | 0.00 | 0.00 | 83 | 1005.5 |
| 20260509140352 | 54 | 9 | 1.7 | 7.0 | 0.00 | 0.00 | 0.00 | 82 | 1005.6 |
| 20260509135852 | 55 | 249 | 2.6 | 6.1 | 0.00 | 0.00 | 0.00 | 82 | 1005.6 |
| 20260509135350 | 55 | 145 | 3.5 | 12.2 | 0.00 | 0.00 | 0.00 | 83 | 1005.6 |
| 20260509134853 | 54 | 245 | 1.7 | 12.2 | 0.00 | 0.00 | 0.00 | 85 | 1005.6 |
| 20260509134407 | 53 | 161 | 1.7 | 7.0 | 0.00 | 0.00 | 0.00 | 85 | 1005.6 |
| 20260509133845 | 53 | 212 | 0.9 | 7.0 | 0.00 | 0.00 | 0.00 | 83 | 1005.6 |
| 20260509133351 | 54 | 154 | 2.6 | 6.1 | 0.00 | 0.00 | 0.00 | 84 | 1005.7 |
| 20260509132856 | 53 | 237 | 1.7 | 7.0 | 0.00 | 0.00 | 0.00 | 84 | 1005.7 |
| 20260509132344 | 54 | 159 | 1.7 | 7.8 | 0.00 | 0.00 | 0.00 | 85 | 1005.7 |
| 20260509131837 | 53 | 198 | 2.6 | 7.8 | 0.00 | 0.00 | 0.00 | 86 | 1005.8 |
| 20260509131343 | 53 | 178 | 3.5 | 7.8 | 0.00 | 0.00 | 0.00 | 88 | 1005.8 |
| 20260509130859 | 52 | 223 | 3.5 | 7.8 | 0.00 | 0.00 | 0.00 | 88 | 1006.0 |
| 20260509130336 | 52 | 145 | 1.7 | 6.1 | 0.00 | 0.00 | 0.00 | 89 | 1006.1 |
| 20260509125403 | 51 | 254 | 3.5 | 7.0 | 0.00 | 0.01 | 0.00 | 89 | 1006.1 |
| 20260509124846 | 51 | 259 | 0.9 | 4.3 | 0.00 | 0.01 | 0.00 | 90 | 1006.0 |
| 20260509124411 | 51 | 269 | 1.7 | 4.3 | 0.00 | 0.01 | 0.00 | 90 | 1006.1 |
| 20260509123851 | 51 | 274 | 0.9 | 4.3 | 0.00 | 0.01 | 0.00 | 90 | 1006.2 |